This demonstration page uses our WeatherBlox Daily Observations layout. Learn more.

Left ArrowRight Arrow

39.92423, -83.80882

Hourly Observations for March 10, 2020

Temp ( °F °C ) Dew Point ( °F °C ) Humidity (%) Winds ( mph kmh ) Pressure ( in mb ) Visibility ( mi km ) Precip ( " mm )
12:56 am 00:56 Cloudy with Light Rain 55 12.8 50 10 83 83 S 16 26 30.08 1019 10 16.0934 0.001 0.001
1:56 am 01:56 Cloudy 57 13.9 48 8.9 72 72 SSW 15 24 30.04 1017 10 16.0934 0.001 0.001
2:56 am 02:56 Cloudy with Light Rain 56 13.3 49 9.4 77 77 SSW 18 30 30.02 1017 10 16.0934 0.01 0.254
3:56 am 03:56 Cloudy with Light Rain 53 11.7 53 11.7 100 100 SSW 17 28 30.01 1016 10 16.0934 0.01 0.254
4:12 am 04:12 Cloudy 54 12 54 12 100 100 SSW 21 33 30 1016 10 16.0934 0.001 0.001
4:45 am 04:45 Cloudy 54 12 54 12 100 100 SSW 18 30 29.99 1016 10 16.0934 0.001 0.001
4:56 am 04:56 Cloudy 53 11.7 53 11.7 100 100 SSW 16 26 29.99 1016 10 16.0934 0.001 0.001
5:31 am 05:31 Cloudy 54 12 54 12 100 100 SSW 17 28 29.97 1015 10 16.0934 0 0
5:56 am 05:56 Cloudy with Rain 54 12.2 53 11.7 97 97 SSW 20 31 29.97 1015 8 12.87472 0.02 0.508
6:28 am 06:28 Cloudy with Light Rain 54 12 54 12 100 100 SSW 12 19 29.98 1015 7 11.26538 0.06 1.524
6:56 am 06:56 Cloudy with Light Rain 53 11.7 53 11.7 100 100 SSW 14 22 29.96 1014 9 14.48406 0.1 2.54
7:04 am 07:04 Cloudy with Light Rain 54 12 54 12 100 100 SSW 15 24 29.94 1014 10 16.0934 0.01 0.254
7:41 am 07:41 Cloudy 54 12 54 12 100 100 SSW 21 33 29.96 1015 10 16.0934 0.01 0.254
7:56 am 07:56 Cloudy 53 11.7 53 11.7 100 100 SW 21 33 29.97 1015 10 16.0934 0.01 0.254
8:14 am 08:14 Cloudy with Light Rain 54 12 54 12 100 100 SSW 17 28 29.96 1015 10 16.0934 0.001 0.001
8:56 am 08:56 Cloudy with Rain 53 11.7 53 11.7 100 100 SSW 20 31 29.97 1015 6 9.65604 0.09 2.286
9:56 am 09:56 Cloudy with Light Rain 53 11.7 53 11.7 100 100 SW 14 22 30.01 1016 9 14.48406 0.15 3.81
10:03 am 10:03 Cloudy with Light Rain 54 12 54 12 100 100 SW 14 22 30.01 1016 10 16.0934 0.001 0.001
10:32 am 10:32 Cloudy with Light Rain 54 12 54 12 100 100 WNW 18 30 30.03 1017 4 6.43736 0.01 0.254
10:40 am 10:40 Cloudy with Light Rain 54 12 54 12 100 100 WNW 14 22 30.04 1017 3 4.82802 0.02 0.508
10:43 am 10:43 Cloudy with Light Rain 54 12 54 12 100 100 WNW 12 19 30.04 1017 2.5 4.02335 0.02 0.508
10:56 am 10:56 Cloudy with Light Rain 52 11.1 52 11.1 100 100 WNW 14 22 30.05 1018 3 4.82802 0.04 1.016
11:27 am 11:27 Cloudy 52 11 52 11 100 100 NW 14 22 30.08 1019 10 16.0934 0.51 12.954
11:56 am 11:56 Cloudy 51 10.6 51 10.6 100 100 WNW 13 20 30.08 1019 10 16.0934 0.57 14.478
12:56 pm 12:56 Cloudy 52 11.1 52 11.1 100 100 WNW 18 30 30.11 1020 10 16.0934 0 0
1:56 pm 13:56 Cloudy 53 11.7 48 8.9 83 83 NW 15 24 30.13 1020 10 16.0934 0 0
2:56 pm 14:56 Cloudy 53 11.7 48 8.9 83 83 WNW 16 26 30.12 1020 10 16.0934 0 0
3:35 pm 15:35 Cloudy 52 11 46 8 82 82 WNW 12 19 30.13 1020 10 16.0934 0 0
3:56 pm 15:56 Cloudy 52 11.1 47 8.3 83 83 WNW 15 24 30.13 1020 10 16.0934 0 0
4:09 pm 16:09 Cloudy 52 11 46 8 82 82 WNW 13 20 30.14 1021 10 16.0934 0 0
4:56 pm 16:56 Cloudy 50 10 46 7.8 86 86 NW 13 20 30.16 1021 10 16.0934 0.07 1.778
5:56 pm 17:56 Cloudy 49 9.4 45 7.2 86 86 NNW 14 22 30.17 1022 10 16.0934 0.49 12.446
6:43 pm 18:43 Cloudy 46 8 43 6 87 87 NNW 15 24 30.2 1023 10 16.0934 0.98 24.892
6:56 pm 18:56 Cloudy 46 7.8 43 6.1 89 89 NNW 13 20 30.19 1023 10 16.0934 1.62 41.148
7:56 pm 19:56 Cloudy 43 6.1 41 5 93 93 NNW 13 20 30.22 1023 10 16.0934 1.29 32.766
8:56 pm 20:56 Cloudy 42 5.6 40 4.4 92 92 NNW 5 7 30.23 1024 10 16.0934 0 0
9:56 pm 21:56 Cloudy 41 5 40 4.4 96 96 NNW 3 6 30.25 1024 10 16.0934 0 0
10:56 pm 22:56 Cloudy 41 5 40 4.4 96 96 ENE 6 9 30.24 1024 10 16.0934 0 0
11:56 pm 23:56 Cloudy 41 5 40 4.4 96 96 NE 7 11 30.24 1024 10 16.0934 0 0

Powered by AerisWeather